Weather History for Lebanon, NH

Change the Weather History Date:

Tuesday, December 25, 2012

  Actual Average Record
Temperature  
Mean Temperature 21 °F -  
Max Temperature 30 °F 30 °F 52 °F (1964)
Min Temperature 12 °F 10 °F -20 °F (1980)
Degree Days  
Heating Degree Days 44    
Moisture  
Dew Point 17 °F    
Average Humidity 80    
Maximum Humidity 88    
Minimum Humidity 64    
Precipitation  
Precipitation 0.05 in - - ()
Sea Level Pressure  
Sea Level Pressure 30.11 in    
Wind  
Wind Speed 2 mph (North)    
Max Wind Speed 7 mph    
Max Gust Speed -    
Visibility 7 miles    
Events Snow    
Averages and records for this station are not official NWS values.
T = Trace of Precipitation, MM = Missing Value Source: NWS Daily Summary

Daily Weather History Graph

Daily Weather History Graph

Search for Another Location

Airport:

Trip Planner

Search our weather history database for the weather conditions in past years. The results will help you decide how hot, cold, wet, or windy it might be!

Date:

Astronomy

Dec. 25, 2012 Rise Set
Actual Time 7:21 AM EST 4:17 PM EST
Civil Twilight 6:48 AM EST 4:50 PM EST
Nautical Twilight 6:12 AM EST 5:27 PM EST
Astronomical Twilight 5:37 AM EST 6:01 PM EST
Moon 2:25 PM EST (12/25) 4:49 AM EST (12/25)
Length of Visible Light 10h 02m
Length of Day
8h 56m
Waxing Gibbous, 93% of the Moon is Illuminated
Dec 25
Waxing Gibbous
Dec 28
Full
Jan 4
Last Quarter
Jan 11
New
Jan 18
First Quarter

Hourly Weather History & Observations

Time (EST) Temp. Windchill Dew Point Humidity Pressure Visibility Wind Dir Wind Speed Gust Speed Precip Events Conditions
12:53 AM 21.9 °F 15.7 °F 16.0 °F 78% 30.04 in 10.0 mi North 4.6 mph - N/A   Clear
1:53 AM 21.0 °F - 16.0 °F 81% 30.04 in 10.0 mi Calm Calm - N/A   Clear
2:53 AM 21.9 °F - 16.0 °F 78% 30.04 in 10.0 mi Calm Calm - N/A   Clear
3:53 AM 21.9 °F 15.7 °F 16.0 °F 78% 30.03 in 10.0 mi NNE 4.6 mph - N/A   Overcast
4:53 AM 21.9 °F 15.7 °F 16.0 °F 78% 30.03 in 5.0 mi NNE 4.6 mph - 0.00 in Snow Light Snow
5:01 AM 21.2 °F 16.4 °F 15.8 °F 80% 30.00 in 2.0 mi NNW 3.5 mph - 0.00 in Snow Light Snow
5:08 AM 21.2 °F - 15.8 °F 80% 30.01 in 1.8 mi Calm Calm - 0.00 in Snow Light Snow
5:53 AM 21.9 °F - 18.0 °F 85% 30.06 in 1.2 mi Calm Calm - 0.02 in Snow Light Snow
6:19 AM 21.2 °F - 17.6 °F 86% 30.02 in 2.5 mi Calm Calm - 0.01 in Snow Light Snow
6:30 AM 21.2 °F - 17.6 °F 86% 30.03 in 4.0 mi Calm Calm - 0.01 in Snow Light Snow
6:53 AM 21.9 °F - 18.0 °F 85% 30.08 in 8.0 mi Calm Calm - 0.01 in   Overcast
7:46 AM 21.2 °F 16.4 °F 17.6 °F 86% 30.05 in 1.8 mi North 3.5 mph - 0.01 in Snow Light Snow
7:53 AM 21.9 °F - 18.0 °F 85% 30.09 in 1.0 mi Calm Calm - 0.01 in Snow Light Snow
8:15 AM 21.2 °F - 17.6 °F 86% 30.06 in 2.5 mi Calm Calm - 0.00 in Snow Light Snow
8:22 AM 21.2 °F - 17.6 °F 86% 30.06 in 5.0 mi Calm Calm - 0.00 in   Haze
8:53 AM 21.9 °F 17.2 °F 17.1 °F 82% 30.11 in 2.5 mi NNW 3.5 mph - 0.01 in Snow Light Snow
9:05 AM 23.0 °F 18.4 °F 17.6 °F 80% 30.08 in 1.8 mi NNW 3.5 mph - 0.00 in Snow Light Snow
9:12 AM 23.0 °F - 17.6 °F 80% 30.07 in 2.5 mi Calm Calm - 0.00 in Snow Light Snow
9:23 AM 23.0 °F 18.4 °F 17.6 °F 80% 30.08 in 4.0 mi North 3.5 mph - 0.00 in Snow Light Snow
9:53 AM 23.0 °F 18.4 °F 18.0 °F 81% 30.13 in 5.0 mi North 3.5 mph - 0.00 in   Haze
10:53 AM 24.1 °F 18.2 °F 18.0 °F 77% 30.13 in 8.0 mi North 4.6 mph - N/A   Overcast
11:53 AM 26.1 °F 21.9 °F 19.0 °F 75% 30.11 in 5.0 mi NNW 3.5 mph - 0.00 in Snow Light Snow
12:53 PM 27.0 °F - 19.0 °F 72% 30.10 in 10.0 mi Calm Calm - 0.00 in   Mostly Cloudy
1:29 PM 28.4 °F - 19.4 °F 69% 30.06 in 10.0 mi Calm Calm - N/A   Overcast
1:53 PM 30.0 °F 25.2 °F 21.0 °F 69% 30.09 in 10.0 mi NNE 4.6 mph - N/A   Overcast
2:02 PM 30.2 °F 26.7 °F 19.4 °F 64% 30.06 in 10.0 mi NNW 3.5 mph - N/A   Overcast
2:53 PM 30.0 °F 26.5 °F 21.0 °F 69% 30.13 in 10.0 mi North 3.5 mph - N/A   Scattered Clouds
3:53 PM 28.9 °F 22.8 °F 21.0 °F 72% 30.16 in 10.0 mi North 5.8 mph - N/A   Clear
4:53 PM 24.1 °F 18.2 °F 19.0 °F 81% 30.17 in 10.0 mi NE 4.6 mph - N/A   Clear
5:53 PM 21.9 °F 17.2 °F 17.1 °F 82% 30.20 in 10.0 mi NNE 3.5 mph - N/A   Clear
6:53 PM 21.0 °F 12.4 °F 15.1 °F 78% 30.24 in 10.0 mi NNE 6.9 mph - N/A   Clear
7:53 PM 21.0 °F 13.4 °F 14.0 °F 74% 30.25 in 10.0 mi North 5.8 mph - N/A   Clear
8:53 PM 15.1 °F - 10.9 °F 84% 30.28 in 10.0 mi Calm Calm - N/A   Clear
9:53 PM 14.0 °F - 10.0 °F 84% 30.30 in 10.0 mi Calm Calm - N/A   Clear
10:53 PM 12.9 °F - 10.0 °F 88% 30.32 in 10.0 mi Calm Calm - N/A   Clear
11:53 PM 12.9 °F 6.9 °F 9.0 °F 84% 30.32 in 10.0 mi NNE 3.5 mph - N/A   Clear